This demonstration page uses our WeatherBlox Daily Observations layout. Learn more.

Hourly Observations for June 19, 2020

Temp ( °F °C ) Dew Point ( °F °C ) Humidity (%) Winds ( mph kmh ) Pressure ( in mb ) Visibility ( mi km ) Precip ( " mm )
12:15 am 00:15 Cloudy 70 21 64 18 83 83 S 7 11 30.11 1020 10 16.0934 0 0
12:35 am 00:35 Cloudy 70 21 64 18 83 83 S 8 13 30.11 1020 10 16.0934 0 0
12:55 am 00:55 Cloudy 68 20 66 19 94 94 SSW 14 22 30.11 1020 10 16.0934 0 0
1:15 am 01:15 Cloudy 64 18 64 18 100 100 SSE 6 9 30.12 1020 5 8.0467 0 0
1:35 am 01:35 Cloudy 64 18 64 18 100 100 Calm 30.11 1020 10 16.0934 0 0
1:55 am 01:55 Cloudy 64 18 64 18 100 100 Calm 30.1 1019 10 16.0934 0 0
2:15 am 02:15 Cloudy 63 17 63 17 100 100 Calm 30.11 1019 10 16.0934 0 0
2:35 am 02:35 Cloudy 63 17 63 17 100 100 Calm 30.12 1020 10 16.0934 0 0
2:55 am 02:55 Cloudy 63 17 63 17 100 100 S 3 6 30.11 1019 10 16.0934 0 0
3:15 am 03:15 Cloudy 63 17 63 17 100 100 S 5 7 30.12 1020 10 16.0934 0 0
3:35 am 03:35 Mostly Cloudy 63 17 63 17 100 100 Calm 30.11 1019 10 16.0934 0 0
3:55 am 03:55 Mostly Cloudy 63 17 63 17 100 100 SSW 3 6 30.11 1019 10 16.0934 0 0
4:15 am 04:15 Cloudy 63 17 63 17 100 100 Calm 30.1 1019 10 16.0934 0 0
4:35 am 04:35 Cloudy 63 17 63 17 100 100 Calm 30.11 1019 10 16.0934 0 0
4:55 am 04:55 Cloudy 61 16 61 16 100 100 SSE 3 6 30.11 1020 10 16.0934 0 0
5:15 am 05:15 Mostly Cloudy 61 16 61 16 100 100 Calm 30.12 1020 10 16.0934 0 0
5:35 am 05:35 Mostly Cloudy 61 16 61 16 100 100 SW 3 6 30.13 1020 10 16.0934 0 0
5:55 am 05:55 Cloudy 61 16 61 16 100 100 Calm 30.13 1020 10 16.0934 0 0
6:15 am 06:15 Cloudy 61 16 61 16 100 100 Calm 30.12 1020 10 16.0934 0 0
6:35 am 06:35 Cloudy 61 16 61 16 100 100 Calm 30.13 1020 10 16.0934 0 0
6:55 am 06:55 Cloudy 61 16 61 16 100 100 Calm 30.13 1020 10 16.0934 0 0
7:15 am 07:15 Cloudy 61 16 61 16 100 100 Calm 30.13 1020 10 16.0934 0 0
7:35 am 07:35 Cloudy 61 16 61 16 100 100 Calm 30.13 1020 7 11.26538 0 0
7:55 am 07:55 Mostly Cloudy 61 16 61 16 100 100 ESE 3 6 30.13 1020 10 16.0934 0 0
8:15 am 08:15 Partly Cloudy 61 16 61 16 100 100 Calm 30.14 1021 10 16.0934 0 0
8:35 am 08:35 Mostly Cloudy 63 17 63 17 100 100 Calm 30.14 1021 10 16.0934 0 0
8:55 am 08:55 Cloudy 63 17 63 17 100 100 S 5 7 30.15 1021 10 16.0934 0 0
9:15 am 09:15 Cloudy 64 18 64 18 100 100 S 5 7 30.14 1021 10 16.0934 0 0
9:35 am 09:35 Cloudy 64 18 64 18 100 100 S 5 7 30.14 1021 10 16.0934 0 0
9:55 am 09:55 Cloudy 64 18 64 18 100 100 SSW 5 7 30.13 1020 10 16.0934 0 0
10:15 am 10:15 Cloudy 66 19 64 18 94 94 S 5 7 30.13 1020 10 16.0934 0 0
10:35 am 10:35 Cloudy 66 19 64 18 94 94 SSW 6 9 30.13 1020 10 16.0934 0 0
10:55 am 10:55 Cloudy 66 19 64 18 94 94 SSW 3 6 30.13 1020 10 16.0934 0 0
11:15 am 11:15 Cloudy 68 20 64 18 88 88 SW 6 9 30.12 1020 10 16.0934 0 0
11:35 am 11:35 Cloudy 68 20 64 18 88 88 S 8 13 30.12 1020 10 16.0934 0 0
11:55 am 11:55 Mostly Cloudy 70 21 64 18 83 83 SSW 8 13 30.12 1020 10 16.0934 0 0
12:15 pm 12:15 Mostly Cloudy 72 22 64 18 78 78 S 8 13 30.12 1020 10 16.0934 0 0
12:35 pm 12:35 Mostly Cloudy 73 23 64 18 74 74 S 8 13 30.12 1020 10 16.0934 0 0
12:55 pm 12:55 Mostly Cloudy 72 22 64 18 78 78 SSW 7 11 30.11 1020 10 16.0934 0 0
1:15 pm 13:15 Partly Cloudy 73 23 64 18 74 74 SSW 6 9 30.1 1019 10 16.0934 0 0
1:35 pm 13:35 Partly Cloudy 75 24 66 19 74 74 SE 8 13 30.09 1019 10 16.0934 0 0
1:55 pm 13:55 Mostly Cloudy 73 23 66 19 78 78 S 3 6 30.07 1018 10 16.0934 0 0
2:15 pm 14:15 Cloudy 77 25 66 19 69 69 S 5 7 30.05 1018 10 16.0934 0 0
2:35 pm 14:35 Mostly Cloudy with Thunderstorms 79 26 66 19 65 65 S 8 13 30.06 1018 10 16.0934 0 0
2:55 pm 14:55 Mostly Cloudy 79 26 66 19 65 65 S 12 19 30.05 1018 10 16.0934 0 0
3:15 pm 15:15 Cloudy with Nearby Thunderstorms 73 23 64 18 74 74 S 15 24 30.07 1018 10 16.0934 0 0
3:35 pm 15:35 Cloudy 68 20 66 19 94 94 SSE 10 17 30.07 1018 1.25 2.011675 0 0
3:55 pm 15:55 Mostly Cloudy with Nearby Thunderstorms 70 21 68 20 94 94 S 13 20 30.08 1019 10 16.0934 0 0
4:15 pm 16:15 Mostly Cloudy with Nearby Thunderstorms 70 21 68 20 94 94 S 13 20 30.07 1018 10 16.0934 0 0
4:35 pm 16:35 Partly Cloudy with Thunderstorms 73 23 68 20 83 83 S 12 19 30.06 1018 10 16.0934 0 0
4:55 pm 16:55 Partly Cloudy 73 23 68 20 83 83 S 8 13 30.05 1018 10 16.0934 0 0
5:15 pm 17:15 Partly Cloudy with Nearby Thunderstorms 73 23 66 19 78 78 SSW 13 20 30.06 1018 10 16.0934 0 0
5:35 pm 17:35 Sunny 72 22 66 19 83 83 S 14 22 30.04 1017 10 16.0934 0 0
5:55 pm 17:55 Sunny 73 23 64 18 74 74 S 10 17 30.04 1017 10 16.0934 0 0
6:15 pm 18:15 Sunny 72 22 66 19 83 83 SW 3 6 30.04 1017 10 16.0934 0 0
6:35 pm 18:35 Sunny 73 23 66 19 78 78 Calm 30.04 1017 10 16.0934 0 0
6:55 pm 18:55 Partly Cloudy 75 24 66 19 74 74 SSW 7 11 30.04 1017 10 16.0934 0 0
7:15 pm 19:15 Mostly Cloudy 75 24 68 20 78 78 S 9 15 30.05 1017 10 16.0934 0 0
7:35 pm 19:35 Cloudy 73 23 68 20 83 83 S 3 6 30.06 1018 10 16.0934 0 0
7:55 pm 19:55 Cloudy 73 23 68 20 83 83 S 3 6 30.06 1018 10 16.0934 0 0
8:15 pm 20:15 Cloudy with Nearby Thunderstorms 73 23 68 20 83 83 SSW 5 7 30.07 1018 10 16.0934 0 0
8:35 pm 20:35 Cloudy 72 22 64 18 78 78 S 6 9 30.07 1018 10 16.0934 0 0
8:55 pm 20:55 Partly Cloudy 72 22 66 19 83 83 S 6 9 30.06 1018 10 16.0934 0 0
9:15 pm 21:15 Partly Cloudy with Nearby Thunderstorms 70 21 66 19 88 88 S 6 9 30.07 1018 10 16.0934 0 0
9:35 pm 21:35 Mostly Cloudy with Nearby Thunderstorms 70 21 66 19 88 88 SSW 3 6 30.08 1019 10 16.0934 0 0
9:55 pm 21:55 Mostly Cloudy 68 20 66 19 94 94 Calm 30.09 1019 10 16.0934 0 0
10:15 pm 22:15 Partly Cloudy 68 20 64 18 88 88 S 3 6 30.09 1019 10 16.0934 0 0
10:35 pm 22:35 Clear 68 20 66 19 94 94 SE 3 6 30.09 1019 10 16.0934 0 0
10:55 pm 22:55 Clear with Nearby Thunderstorms 68 20 64 18 88 88 Calm 30.08 1019 10 16.0934 0 0
11:15 pm 23:15 Clear 68 20 64 18 88 88 Calm 30.09 1019 10 16.0934 0 0
11:35 pm 23:35 Partly Cloudy 64 18 64 18 100 100 Calm 30.08 1019 10 16.0934 0 0
11:55 pm 23:55 Clear 66 19 64 18 94 94 Calm 30.08 1019 10 16.0934 0 0

Powered by AerisWeather